loading
DOY 175 | 2024-06-23T11:13:32Z

THOR ABLESTAR DEB, 299

Orbit data source: Space-Track

THOR ABLESTAR DEB, 299 is space debris in LEO originally from a launch on Thu, 29 Jun 1961 UTC launched from the Air Force Eastern Test Range (AFETR). Debris objects in space refer to the collection of defunct objects orbiting the Earth. Examples of debris include non-operational satellites, rocket bodies, and fragments generated from explosions, collisions, or faulty payload assembly.

Loading next visibility...
Loading greatness...
THOR ABLESTAR DEB details
NORAD ID299
COSPAR ID
1961-015CQ
Orbit
LEO
Last TLE update21 hours ago
Origin
Flag of USUSAF SSD (US)
ManufacturerUnknown
BusUnknown
MotorUnknown
MassWet unknown, Dry mass unknown
Launch date (UTC)
1961-06-29 (63 years ago)
Launch vehicleUnknown
Launch site
Air Force Eastern Test Range (AFETR)
Object type
Payload
Rocket body
Debris
Radar Cross SectionSmall (<0.1 m²)
Predictive object data (real-time)
Latitude-30.51872°
Longitude131.31468°
Altitude1,133.199 km
Speed7.227 km/s
Apparent Right ascension14h 25m 18s
Apparent Declination-47° 23' 20"
Sunlit
Object is in full shadow
Predictive observer data (real-time)
Local Sidereal Time22:21:31
Azimuth239.149° WSW
Elevation-46.42°
Doppler factor1
Orbital elements
Apogee1,141.252 km
Perigee865.41 km
Semi-major axis7,381.468 km
Eccentricity0.0186848
Inclination67.1687°
RAAN274.0384°
Arg. of periapsis116.5245°
True anomaly243.58224°
Mean anomaly245.5117°
Mean motion3.42239 °/min
BSTAR0.00023847
Period105.19 mins
Definitive object data (Epoch: 2024-06-22T14:20:37.095Z)
Latitude-0.00004°
Longitude147.62512°
Altitude1,066.345 km
Speed7.29 km/s
True Right ascension18h 16m 09s
True Declination0° 00' 00"
Sunlit
Object was in full shadow at TLE epoch
TLE from 21 hours ago
0 THOR ABLESTAR DEB
1 00299U 61015CQ  24174.59765157  .00000162  00000-0  23847-3 0  9992
2 00299  67.1687 274.0384 0186848 116.5245 245.5117 13.68499615129890
Epoch: 2024-06-22T14:20Z
No data available

THOR ABLESTAR DEB Visibility forecast

Observer location: 39.9160978°, -105.1181434, 0m alt.

THOR ABLESTAR DEB is not visible in the next 10 days
Span
Click to sort rows by Start time (UTC) header in descending order
Start Az.
Max El. time (UTC)
Max El. Az.
Max El.
End time (UTC)
End Az.